Weather History for Mobridge, SD

Change the Weather History Date:

Monday, September 9, 2013

  Actual Average Record
Temperature  
Mean Temperature 72 °F 64 °F  
Max Temperature 83 °F 77 °F 105 °F (1931)
Min Temperature 60 °F 51 °F 30 °F (1943)
Degree Days  
Heating Degree Days 0 4  
Month to date heating degree days 0 29  
Since 1 July heating degree days 13 62  
Cooling Degree Days 7 3  
Month to date cooling degree days 83 34  
Year to date cooling degree days 667 615  
Growing Degree Days 24 (Base 50)    
Moisture  
Dew Point 65 °F    
Average Humidity 72    
Maximum Humidity 100    
Minimum Humidity 43    
Precipitation  
Precipitation 1.34 in 0.05 in 2.10 in (1927)
Month to date precipitation 2.73 0.41  
Year to date precipitation 16.55 14.32  
Sea Level Pressure  
Sea Level Pressure 29.71 in    
Wind  
Wind Speed 8 mph (WNW)    
Max Wind Speed 6 mph    
Max Gust Speed 7 mph    
Visibility 9 miles    
Events Rain , Thunderstorm    
T = Trace of Precipitation, MM = Missing Value Source: NWS Daily Summary

Daily Weather History Graph

Daily Weather History Graph

Search for Another Location

Airport:

Trip Planner

Search our weather history database for the weather conditions in past years. The results will help you decide how hot, cold, wet, or windy it might be!

Date:

Astronomy

Sep. 09, 2013 Rise Set
Actual Time 7:13 AM CDT 8:03 PM CDT
Civil Twilight 6:42 AM CDT 8:33 PM CDT
Nautical Twilight 6:07 AM CDT 9:09 PM CDT
Astronomical Twilight 5:29 AM CDT 9:46 PM CDT
Moon 11:52 AM CDT (9/9) 10:05 PM CDT (9/9)
Length of Visible Light 13h 50m
Length of Day
12h 50m
Waxing Crescent, 19% of the Moon is Illuminated
Sep 9
Waxing Crescent
Sep 12
First Quarter
Sep 19
Full
Sep 26
Last Quarter
Oct 4
New

Hourly Weather History & Observations

Time (CDT) Temp. Heat Index Dew Point Humidity Pressure Visibility Wind Dir Wind Speed Gust Speed Precip Events Conditions
12:52 AM 72.0 °F - 69.1 °F 91% 29.64 in 9.0 mi ESE 11.5 mph - N/A   Scattered Clouds
1:03 AM 71.6 °F - 69.8 °F 94% 29.66 in 9.0 mi ESE 8.1 mph - N/A Thunderstorm Thunderstorm
1:26 AM 71.6 °F - 69.8 °F 94% 29.69 in 2.0 mi WSW 11.5 mph - 0.02 in Rain , Thunderstorm Heavy Thunderstorms and Rain
1:38 AM 66.2 °F - 66.2 °F 100% 29.74 in - West 13.8 mph 26.5 mph 0.60 in Rain , Thunderstorm Heavy Thunderstorms and Rain
1:52 AM 66.0 °F - 66.0 °F 100% 29.70 in 0.8 mi SSW 3.5 mph - 1.16 in Rain , Thunderstorm Heavy Thunderstorms and Rain
1:59 AM 66.2 °F - 66.2 °F 100% 29.72 in 2.0 mi SE 9.2 mph - 0.08 in Rain , Thunderstorm Heavy Thunderstorms and Rain
2:02 AM 66.2 °F - 66.2 °F 100% 29.73 in 3.0 mi ESE 10.4 mph - 0.09 in Rain , Thunderstorm Thunderstorms and Rain
2:12 AM 66.2 °F - 66.2 °F 100% 29.74 in 10.0 mi SSE 10.4 mph - 0.10 in Rain , Thunderstorm Light Thunderstorms and Rain
2:48 AM 66.2 °F - 66.2 °F 100% 29.72 in 7.0 mi SW 5.8 mph - 0.13 in Rain Rain
2:52 AM 66.0 °F - 64.9 °F 96% 29.68 in 7.0 mi South 5.8 mph - 0.14 in Rain Light Rain
3:52 AM 66.9 °F - 64.9 °F 93% 29.61 in 10.0 mi Calm Calm - 0.03 in Rain Light Rain
4:52 AM 68.0 °F - 64.0 °F 87% 29.60 in 10.0 mi West 8.1 mph - 0.01 in   Clear
5:52 AM 66.9 °F - 64.9 °F 93% 29.62 in 10.0 mi NW 10.4 mph - N/A   Unknown
6:52 AM 66.9 °F - 66.0 °F 97% 29.64 in 10.0 mi WNW 5.8 mph - N/A   Clear
7:26 AM 66.2 °F - 66.2 °F 100% 29.68 in 10.0 mi Calm Calm - N/A   Partly Cloudy
7:52 AM 66.9 °F - 66.0 °F 97% 29.63 in 10.0 mi Calm Calm - N/A   Scattered Clouds
8:18 AM 68.0 °F - 66.2 °F 94% 29.68 in 10.0 mi SSW 3.5 mph - N/A   Mostly Cloudy
8:30 AM 69.8 °F - 68.0 °F 94% 29.68 in 10.0 mi WSW 5.8 mph - N/A   Overcast
8:52 AM 70.0 °F - 68.0 °F 93% 29.66 in 10.0 mi West 6.9 mph - N/A   Overcast
9:20 AM 69.8 °F - 68.0 °F 94% 29.69 in 10.0 mi WNW 9.2 mph - N/A   Overcast
9:52 AM 70.0 °F - 66.9 °F 90% 29.66 in 10.0 mi NW 9.2 mph - N/A   Overcast
10:03 AM 69.8 °F - 66.2 °F 88% 29.69 in 10.0 mi NW 10.4 mph - N/A   Overcast
10:52 AM 71.1 °F - 66.9 °F 87% 29.69 in 10.0 mi WNW 13.8 mph - N/A   Overcast
11:07 AM 71.6 °F - 66.2 °F 83% 29.72 in 10.0 mi WNW 13.8 mph - N/A   Overcast
11:29 AM 69.8 °F - 66.2 °F 88% 29.73 in 10.0 mi NNW 13.8 mph - N/A   Overcast
11:52 AM 71.1 °F - 66.0 °F 84% 29.71 in 10.0 mi NW 13.8 mph 19.6 mph N/A   Overcast
12:06 PM 71.6 °F - 64.4 °F 78% 29.74 in 10.0 mi NW 13.8 mph - N/A   Overcast
12:52 PM 72.0 °F - 64.9 °F 78% 29.72 in 10.0 mi NNW 18.4 mph 23.0 mph N/A   Overcast
1:11 PM 71.6 °F - 64.4 °F 78% 29.75 in 10.0 mi NNW 12.7 mph 24.2 mph N/A   Mostly Cloudy
1:52 PM 75.9 °F - 64.0 °F 67% 29.74 in 10.0 mi NW 13.8 mph - N/A   Mostly Cloudy
2:52 PM 79.0 °F - 63.0 °F 58% 29.73 in 10.0 mi NW 12.7 mph 19.6 mph N/A   Clear
3:52 PM 81.0 °F 81.6 °F 60.1 °F 49% 29.73 in 10.0 mi NW 15.0 mph 19.6 mph N/A   Partly Cloudy
4:52 PM 81.0 °F 81.7 °F 61.0 °F 50% 29.73 in 10.0 mi NNW 12.7 mph - N/A   Mostly Cloudy
5:52 PM 82.0 °F 81.7 °F 57.0 °F 42% 29.74 in 10.0 mi NW 8.1 mph - N/A   Clear
6:52 PM 80.1 °F 80.6 °F 57.9 °F 47% 29.75 in 10.0 mi NW 4.6 mph - N/A   Clear
7:52 PM 75.0 °F - 60.1 °F 60% 29.78 in 10.0 mi West 4.6 mph - N/A   Clear
8:52 PM 70.0 °F - 60.1 °F 71% 29.81 in 10.0 mi West 4.6 mph - N/A   Clear
9:52 PM 70.0 °F - 59.0 °F 68% 29.81 in 10.0 mi NW 8.1 mph - N/A   Clear
10:52 PM 66.9 °F - 59.0 °F 76% 29.82 in 10.0 mi NW 4.6 mph - N/A   Clear
11:52 PM 64.0 °F - 57.0 °F 78% 29.83 in 10.0 mi NW 5.8 mph - N/A   Unknown